Location: Casilda
(33.0440°S, 61.1680°W)
Time: 05:30:49
(UTC-03:00)

ISS - Visible Passes

Search period start: 09 May 2021 00:00
Search period end: 19 May 2021 00:00
Orbit: 418 x 421 km, 51.6° (Epoch: 09 May)

Date Brightness Start Highest point End Pass type
(mag) Time Alt. Az. Time Alt. Az. Time Alt. Az.
09 May -2.4 19:43:31 10° WSW 19:46:44 38° NW 19:49:12 15° NNE visible
10 May -3.6 18:55:56 10° SW 18:59:21 78° NW 19:02:44 10° NE visible
11 May -0.3 19:47:26 10° WNW 19:48:20 11° NW 19:49:14 10° NW visible
12 May -0.8 18:58:29 10° WSW 19:01:05 20° NW 19:03:38 10° N visible
